Creek Data

    Home     View Charts     View Raw Data     Messages

ID Distance Battery Voltage Battery Current Internal Temp Internal Humidity External Temp Solar Input rssi snr Time Stamp Record
33725 14.8 3.90 -5 43 38 47 0.1 -77 7 03/01/2025 01:45 AM 15424
33724 14.9 3.90 -5 44 38 48 0 -76 9 03/01/2025 01:30 AM 15423
33723 14.9 3.90 -5 44 38 45 0 -76 9 03/01/2025 01:00 AM 15421
33722 14.8 3.90 -5 45 38 47 0 -76 8 03/01/2025 12:45 AM 15420
33721 14.8 3.96 -5 45 38 48 0 -76 8 03/01/2025 12:30 AM 15419
33720 14.8 3.96 -5 46 38 49 0.1 -76 8 03/01/2025 12:00 AM 15417
33719 14.8 3.91 -5 47 38 49 0 -76 8 02/28/2025 11:45 PM 15416
33718 14.8 3.96 -5 47 38 49 0.1 -76 8 02/28/2025 11:30 PM 15415
33717 14.8 3.91 -5 47 39 49 0 -76 8 02/28/2025 11:15 PM 15414
33716 14.8 3.97 -5 47 39 49 0 -77 8 02/28/2025 11:00 PM 15413
33715 14.8 3.91 -5 48 39 51 0 -76 8 02/28/2025 10:45 PM 15412
33714 14.8 3.97 -5 48 39 50 0 -76 8 02/28/2025 10:30 PM 15411
33713 14.9 3.91 -5 50 39 50 0 -76 8 02/28/2025 10:15 PM 15410
33712 14.8 3.91 -5 51 38 53 0 -77 7 02/28/2025 10:00 PM 15409
33711 14.9 3.91 -5 52 38 53 0 -76 8 02/28/2025 09:45 PM 15408
33710 14.9 3.91 -5 52 39 54 0 -73 8 02/28/2025 09:30 PM 15407
33709 14.9 3.97 -5 51 39 54 0 -74 8 02/28/2025 09:15 PM 15406
33708 14.9 3.92 -5 51 40 54 0 -74 7 02/28/2025 09:00 PM 15405
33707 14.9 3.92 -5 52 40 53 0 -74 8 02/28/2025 08:45 PM 15404
33706 14.9 3.97 -5 52 40 54 0.1 -74 8 02/28/2025 08:30 PM 15403
33705 14.9 3.92 -5 54 40 54 0 -74 8 02/28/2025 08:15 PM 15402
33704 14.9 3.92 -5 54 40 56 0 -74 8 02/28/2025 08:00 PM 15401
33703 14.9 3.92 -5 55 41 55 0 -74 8 02/28/2025 07:45 PM 15400
33702 14.9 3.98 -5 55 42 56 0 -74 8 02/28/2025 07:30 PM 15399
33701 14.9 3.92 -5 56 42 56 0 -75 8 02/28/2025 07:15 PM 15398